SCP
0 0 0 0 0 0 0 0 0 0 0 1 1 1 1 1 2 2 2 2 1 1 0 1 1 1 2 1 1 1 1 1 1 1 1 1 1 1 1 1 1 1 1 1
0 0 0 0 0 0 0 0 0 0 0 1 1 1 1 2 2 2 2 2 1 1 1 1 1 1 1 1 1 1 1 1 1 1 1 1 1 1 1 1 1 1 1 1
0 0 0 0 0 0 0 0 0 0 0 0 1 1 1 2 2 2 2 2 1 1 1 1 1 1 1 1 1 1 1 1 1 1 1 1 1 1 1 1 1 1 1 1
0 0 0 0 0 0 0 0 0 0 0 0 0 0 1 2 2 2 2 2 1 1 1 1 1 1 1 1 1 1 1 1 2 2 2 1 1 1 1 1 1 1 1 1
0 0 0 0 0 0 0 0 0 0 0 0 0 0 1 1 2 2 2 2 1 1 1 1 1 1 1 1 1 1 1 2 3 3 3 2 1 1 2 2 2 2 2 2
0 0 0 0 0 0 0 0 0 0 0 0 0 0 0 1 2 2 2 2 1 1 1 1 1 1 1 1 1 1 2 3 4 5 4 3 2 2 3 3 4 4 3 3
0 0 0 0 0 0 0 0 0 0 0 0 0 0 0 1 1 2 2 2 1 1 1 1 1 2 2 1 1 2 2 4 5 6 5 4 3 3 3 4 4 5 5 4
0 0 0 0 0 0 0 0 0 0 0 0 0 0 1 1 1 1 2 2 1 1 1 2 2 2 2 2 2 2 3 4 5 6 6 6 4 4 4 4 5 5 5 5
0 0 0 0 0 0 0 0 0 0 0 0 0 0 1 1 1 1 1 1 1 1 2 2 2 3 3 3 3 3 3 3 4 5 6 6 6 5 5 5 5 5 5 4
0 0 0 0 0 0 0 0 0 0 0 0 0 0 1 1 1 1 1 1 1 1 2 2 2 3 3 3 3 3 3 3 4 5 6 6 7 6 6 6 7 6 5 4
0 0 0 0 0 0 0 0 0 0 0 0 0 0 1 1 1 1 1 1 1 2 2 2 2 3 3 3 3 3 3 3 3 4 5 6 7 8 8 8 7 6 4 4
0 0 0 0 0 0 0 0 0 0 0 0 0 0 1 1 1 1 1 1 2 2 2 2 3 3 3 2 3 3 3 3 4 4 5 6 8 10 10 9 7 6 5 4
0 0 0 0 0 0 0 0 0 0 0 0 0 0 1 1 1 1 1 1 2 3 3 3 3 3 3 2 2 3 3 4 4 5 6 8 10 11 11 9 8 6 5 5
0 0 0 0 0 0 0 0 0 0 0 0 0 0 1 1 1 1 1 2 2 3 3 3 3 3 3 3 3 3 4 4 5 6 8 9 9 10 10 10 8 8 7 6
0 0 0 0 0 0 0 0 0 0 0 0 0 0 1 1 1 1 2 2 3 3 3 3 3 3 3 3 3 4 4 5 6 7 8 8 8 9 10 10 10 11 9 8
0 0 0 0 0 0 0 0 0 0 0 0 0 1 1 1 2 2 2 3 3 3 3 3 3 3 4 4 4 4 5 5 6 7 7 7 7 8 9 10 12 13 12 10
0 0 0 0 0 0 0 0 0 0 0 0 0 1 1 1 2 2 3 3 4 4 3 3 3 4 5 5 6 7 7 7 8 8 7 6 7 8 8 9 11 12 12 12
0 0 0 0 0 0 0 0 1 1 1 1 1 1 1 1 2 3 4 4 4 5 5 6 7 8 9 10 11 11 10 10 10 8 6 6 7 7 7 7 8 9 10 11
0 0 0 0 0 0 0 1 1 1 1 1 1 1 1 1 2 3 4 4 5 7 9 11 13 15 16 16 14 12 11 9 8 7 6 6 7 6 6 6 6 6 7 8
0 0 0 0 0 0 1 1 1 1 1 1 2 2 2 2 3 3 4 4 6 8 12 15 17 17 17 14 11 9 8 7 6 6 6 6 6 5 5 5 5 5 5 5
0 0 0 0 0 0 1 1 1 1 1 2 2 2 2 3 4 4 4 4 5 8 11 13 13 12 11 9 8 7 7 7 7 7 5 4 4 4 4 4 5 4 4 4
0 0 0 0 1 1 1 2 2 2 2 3 3 3 3 4 5 5 5 5 5 7 8 8 8 7 6 6 7 7 8 8 8 7 6 4 3 4 4 5 5 5 4 4
1 1 1 1 1 2 2 3 3 3 3 3 3 3 4 5 6 7 8 8 7 7 7 7 6 6 5 6 6 6 7 7 7 7 5 4 4 4 4 5 5 5 5 5
2 2 2 2 2 3 3 3 3 3 3 4 4 4 5 6 7 8 10 10 9 9 8 7 6 6 5 5 5 5 6 6 6 6 5 4 4 4 5 5 5 5 5 5
3 3 3 3 3 3 3 3 3 4 4 4 4 4 5 6 7 8 9 9 9 9 8 7 6 6 5 4 4 5 5 5 5 6 6 5 5 5 5 5 5 4 4 4
4 4 3 3 3 4 4 5 4 4 4 4 4 4 5 5 6 7 7 8 9 10 9 8 7 5 4 4 4 5 5 5 5 5 6 6 5 6 6 6 5 4 3 3
Wind_Speed
7 9 8 5 4 3 2 2 1 2 2 3 3 3 4 6 7 8 8 8 8 7 7 7 7 6 6 5 4 4 3 3 2 1 1 1 1 1 1 1 2 1 1 1
9 10 6 3 4 4 5 5 3 3 2 3 3 3 3 6 8 8 8 9 9 8 8 8 8 7 7 6 5 4 4 3 3 2 1 1 0 0 1 1 2 1 1 1
11 3 5 7 7 7 7 6 3 2 3 5 5 5 5 6 7 8 9 9 9 9 9 9 9 8 8 7 6 4 4 4 3 3 2 2 2 1 2 2 1 1 1 1
9 5 7 9 8 8 6 3 4 5 6 3 5 3 3 6 7 9 9 10 10 10 10 10 10 9 9 8 7 6 5 4 4 4 3 2 1 1 1 1 1 1 1 1
8 8 10 10 7 7 3 2 5 6 7 6 5 6 2 6 6 8 9 10 9 10 10 10 10 10 9 8 7 7 5 4 4 4 4 3 2 1 1 1 2 0 1 1
6 6 7 6 5 6 4 5 6 8 8 7 4 6 2 3 4 5 7 8 9 9 10 10 10 9 9 8 7 7 6 5 5 5 5 4 2 2 1 1 1 1 1 1
11 11 8 7 8 9 10 9 7 7 7 4 2 6 2 1 2 4 5 7 8 9 10 10 11 10 10 9 8 7 7 6 6 6 5 5 4 4 3 2 2 1 1 1
13 12 11 10 9 8 10 11 8 6 5 2 5 5 1 2 2 4 5 6 7 8 9 10 11 11 10 10 9 9 8 7 7 6 5 5 5 4 3 2 2 1 1 0
10 9 8 7 6 8 9 10 8 9 8 7 4 3 3 4 5 6 6 7 8 8 8 9 10 11 11 10 10 10 9 8 7 7 6 5 5 3 2 2 3 2 1 1
7 8 8 8 8 6 8 7 7 8 8 8 6 6 4 7 7 7 7 7 7 7 7 7 8 9 9 9 10 9 9 9 8 7 6 5 5 4 3 3 2 2 2 1
10 9 9 10 11 10 9 10 9 8 8 9 6 2 2 6 6 6 7 7 7 7 7 7 7 8 9 9 10 9 9 9 8 7 6 5 5 5 5 4 3 3 2 2
9 9 8 9 5 5 9 10 11 9 8 9 9 2 3 4 4 5 5 6 6 7 7 7 7 8 9 9 9 9 9 9 8 7 7 6 5 5 5 4 4 3 3 3
7 8 9 10 10 10 10 9 10 10 8 9 10 3 4 4 4 4 5 6 6 7 6 6 7 7 8 9 9 9 8 8 7 7 7 6 6 5 5 4 3 3 3 2
7 10 11 10 6 7 9 10 10 11 9 9 10 6 4 4 4 4 5 6 7 7 6 6 6 7 7 8 8 8 8 7 7 6 6 6 6 5 5 4 3 3 2 2
8 10 10 9 6 7 9 10 11 13 12 11 8 7 4 3 4 4 5 6 6 7 7 7 7 7 7 8 8 8 7 6 6 6 6 5 5 5 4 4 3 3 2 3
6 7 9 10 9 10 10 11 11 12 11 11 10 8 4 3 3 4 5 6 6 6 7 7 7 7 7 8 8 8 7 6 6 6 5 5 4 4 4 4 3 3 3 3
7 7 9 10 9 10 13 11 12 11 10 10 10 6 3 4 5 4 5 5 5 5 5 6 6 7 7 7 7 8 7 7 7 6 5 5 5 4 4 4 4 3 4 3
6 7 7 9 9 14 5 3 7 9 8 7 6 4 4 4 4 4 4 5 5 4 5 6 6 6 6 7 7 7 7 8 7 7 6 5 5 5 4 4 4 3 3 3
7 8 8 9 11 11 6 4 5 8 7 5 6 5 4 4 5 5 5 4 4 4 4 4 5 6 6 6 6 7 7 7 6 5 5 5 5 5 5 4 3 3 3 3
7 8 10 10 12 12 4 3 3 6 7 2 3 4 5 7 7 4 6 5 5 4 4 4 5 5 6 5 6 7 6 6 5 4 4 4 4 5 4 3 3 3 3 3
11 10 13 13 12 6 2 2 5 9 1 1 2 3 5 4 1 5 6 6 5 5 5 5 5 5 5 5 5 6 6 5 4 4 3 3 3 4 4 3 3 3 3 3
10 10 11 11 13 7 3 4 3 2 3 1 1 1 2 2 4 5 6 6 5 5 5 5 5 4 4 4 5 5 4 4 4 4 4 4 4 3 3 3 3 3 3 4
7 5 4 5 3 3 2 0 1 1 1 1 1 1 3 4 4 5 5 5 5 4 4 4 5 4 4 3 3 4 3 3 4 4 4 4 4 3 3 3 4 3 4 4
4 2 4 4 3 2 1 1 1 1 1 1 0 2 3 4 4 5 4 4 4 3 3 3 4 4 3 3 2 2 3 3 4 4 4 3 3 4 3 3 3 3 3 4
3 5 5 6 4 3 3 1 1 1 0 0 1 2 3 4 4 4 4 4 3 3 2 2 2 3 3 2 2 2 3 3 3 4 4 4 4 3 3 3 3 4 3 3
6 6 7 5 2 3 2 2 1 1 1 1 1 2 3 3 4 4 4 4 3 3 2 2 2 2 2 2 2 1 2 3 4 4 4 4 4 3 4 4 3 2 4 3
Wind_Direction
197 221 218 213 233 290 259 257 238 110 135 220 223 219 179 183 194 190 188 184 183 184 174 172 175 174 171 172 174 176 181 170 188 185 195 167 139 133 111 104 80 84 77 92
202 221 222 221 213 225 228 238 220 154 152 234 249 241 202 192 204 199 195 192 187 183 179 177 179 180 180 179 179 178 185 184 193 171 184 188 135 153 108 83 83 74 89 115
222 189 181 203 204 219 231 243 243 217 194 215 247 218 193 188 203 200 202 199 194 189 186 181 184 186 185 183 183 183 188 185 184 175 180 168 162 175 130 125 118 99 92 99
223 200 198 209 211 229 229 242 242 229 246 235 260 267 178 185 196 199 203 202 199 192 189 185 184 186 188 187 182 181 185 184 179 181 180 186 167 146 111 129 105 116 103 100
199 199 206 215 218 235 259 231 236 243 260 264 235 263 171 172 204 198 198 202 199 193 190 187 186 183 187 185 182 178 178 181 180 180 174 191 194 183 151 142 125 157 120 121
217 203 225 226 216 224 201 203 217 234 250 251 251 265 221 176 208 192 185 191 193 189 188 187 184 180 185 184 184 178 172 177 179 180 179 186 189 198 173 174 155 185 149 144
211 207 203 207 204 194 216 226 225 222 224 236 199 254 258 120 186 198 183 179 181 181 183 183 182 183 186 185 184 180 176 178 181 182 185 185 192 197 197 209 182 216 177 153
208 199 194 204 224 216 222 242 254 268 268 231 193 241 167 125 160 176 180 176 175 177 179 183 183 184 186 185 184 180 178 181 181 182 184 189 195 203 195 197 218 213 218 194
218 204 176 196 220 235 222 236 259 265 267 269 237 211 203 175 174 175 175 172 174 178 175 180 185 185 186 185 185 184 179 180 182 182 182 188 195 201 197 195 211 213 213 200
239 224 189 180 199 217 252 239 232 249 261 260 244 231 205 186 186 178 178 176 173 174 172 176 182 183 184 185 183 184 182 181 183 184 190 185 190 193 198 211 217 232 230 215
232 226 200 198 215 214 207 222 240 249 259 266 261 233 112 186 193 194 188 179 177 181 176 173 177 179 180 180 179 180 182 181 182 188 191 192 191 189 195 202 209 215 224 217
223 234 220 212 206 253 239 237 230 240 239 254 270 240 119 179 189 200 191 177 176 180 175 172 172 172 176 178 179 179 182 183 183 184 188 191 190 192 197 196 205 213 217 223
204 230 219 206 195 203 222 228 238 247 248 251 258 234 124 155 183 195 190 172 171 179 175 169 169 171 175 176 178 180 184 185 183 182 186 184 188 192 201 200 201 210 217 227
234 232 242 240 229 201 211 220 227 236 241 243 251 250 195 196 198 190 182 177 176 176 175 174 171 175 175 176 175 178 181 182 181 185 188 184 193 195 199 199 196 200 208 222
231 232 236 252 252 233 226 227 226 235 248 256 253 252 236 219 214 189 181 183 183 181 185 182 183 177 176 174 172 174 174 174 177 183 188 187 195 196 199 196 196 202 217 228
229 240 232 235 234 235 235 235 238 238 242 247 252 257 246 212 196 184 183 190 192 189 190 187 183 179 180 177 174 169 169 171 178 187 188 182 191 193 197 200 201 208 220 235
210 223 234 234 221 230 233 227 232 233 236 244 250 252 212 200 195 188 188 195 196 191 182 181 180 179 179 177 174 173 169 169 177 181 179 178 186 197 204 207 204 217 224 226
225 224 232 236 219 234 234 208 233 235 233 248 254 247 221 207 187 187 188 191 189 183 178 173 175 170 170 167 169 171 166 166 171 175 178 182 189 200 204 211 220 230 238 235
225 224 233 233 230 235 211 197 223 230 226 236 243 226 200 170 171 178 163 172 180 172 162 160 162 157 154 156 158 159 161 163 168 173 177 180 190 194 201 210 217 229 239 243
199 223 232 228 237 239 208 155 207 235 218 212 243 210 191 198 219 162 144 153 153 141 137 140 143 144 145 150 156 160 165 167 173 174 173 177 189 197 204 212 227 233 237 243
195 207 224 230 237 237 90 134 199 227 228 65 237 215 206 212 341 92 131 139 140 138 134 136 138 138 141 152 160 166 166 170 172 169 164 179 196 205 209 211 223 231 241 250
214 211 217 229 237 226 114 171 218 350 21 346 254 224 197 136 117 123 131 135 137 137 138 141 138 135 143 152 162 170 169 165 167 170 172 184 199 216 204 210 220 225 241 241
234 256 245 244 252 71 117 96 18 326 294 293 244 184 164 156 142 136 135 135 135 133 133 139 137 132 134 146 168 174 159 164 175 179 187 197 202 212 227 221 222 223 226 245
201 256 248 237 212 199 218 262 280 296 297 322 214 166 166 156 141 137 132 131 131 129 136 142 139 138 136 138 148 161 157 172 186 193 198 204 210 218 220 236 238 246 245 246
232 215 226 232 225 223 217 255 298 318 328 125 152 163 161 150 146 140 135 134 133 134 140 147 149 146 146 149 160 175 173 186 199 205 209 215 221 227 231 238 252 254 256 262
230 236 242 248 217 253 242 271 268 238 218 186 161 149 143 146 145 142 138 134 138 142 145 151 160 168 168 170 174 167 175 197 210 219 223 232 235 226 237 239 239 228 249 219